Location: Alexandria
(38.8050°N, 77.0470°W)
Time: 18:04:21
(UTC-04:00)

KAITUO 1B - Pass Details

Date: 21 February 2018
Orbit: 498 x 520 km, 97.4° (Epoch: 18 June)

Event Time Altitude Azimuth Distance (km) Brightness Sun altitude
Rises 05:56:46 0° 21° (NNE) 2,611 ? -11.4°
Reaches altitude 10° 05:59:00 10° 31° (NNE) 1,726 ? -11.0°
Maximum altitude 06:02:24 34° 98° (E) 854 ? -10.3°
Drops below altitude 10° 06:05:49 10° 164° (SSE) 1,725 ? -9.6°
Sets 06:08:02 0° 174° (S) 2,610 ? -9.2°
